Heute – Wetterdaten der letzten 3 Stunden im 5 Min. Intervall

Wetterdaten der letzten 3 Stunden im 5 Min. Intervall
DatumAussentemperaturLuftdruckLuftfeuchtigkeitWindstärke Regen
25.06.19, 12:05 31.7 °C 1016.4 hPa 52 % 6.8 km/h 0.0 mm
25.06.19, 11:55 31.4 °C 1016.3 hPa 52 % 0.0 km/h 0.0 mm
25.06.19, 11:50 31.5 °C 1016.5 hPa 52 % 3.2 km/h 0.0 mm
25.06.19, 11:45 31.3 °C 1016.4 hPa 52 % 3.2 km/h 0.0 mm
25.06.19, 11:40 31.2 °C 1016.4 hPa 53 % 11.9 km/h 0.0 mm
25.06.19, 11:35 30.9 °C 1016.5 hPa 53 % 3.2 km/h 0.0 mm
25.06.19, 11:30 30.7 °C 1016.5 hPa 53 % 3.2 km/h 0.0 mm
25.06.19, 11:25 30.6 °C 1016.5 hPa 53 % 1.8 km/h 0.0 mm
25.06.19, 11:20 30.3 °C 1016.4 hPa 54 % 10.1 km/h 0.0 mm
25.06.19, 11:15 30.2 °C 1016.5 hPa 54 % 3.2 km/h 0.0 mm
25.06.19, 11:10 30.1 °C 1016.3 hPa 55 % 3.2 km/h 0.0 mm
25.06.19, 11:05 30.1 °C 1016.4 hPa 56 % 1.8 km/h 0.0 mm
25.06.19, 10:55 29.9 °C 1016.4 hPa 56 % 5.0 km/h 0.0 mm
25.06.19, 10:50 29.5 °C 1016.4 hPa 57 % 1.8 km/h 0.0 mm
25.06.19, 10:45 29.3 °C 1016.4 hPa 58 % 5.0 km/h 0.0 mm
25.06.19, 10:40 28.9 °C 1016.4 hPa 58 % 6.8 km/h 0.0 mm
25.06.19, 10:35 28.4 °C 1016.5 hPa 59 % 3.2 km/h 0.0 mm
25.06.19, 10:30 28.1 °C 1016.4 hPa 60 % 8.6 km/h 0.0 mm
25.06.19, 10:25 28.2 °C 1016.3 hPa 61 % 10.1 km/h 0.0 mm
25.06.19, 10:20 27.8 °C 1016.5 hPa 62 % 3.2 km/h 0.0 mm
25.06.19, 10:15 27.2 °C 1016.4 hPa 64 % 3.2 km/h 0.0 mm
25.06.19, 10:10 26.8 °C 1016.5 hPa 63 % 3.2 km/h 0.0 mm
25.06.19, 10:05 26.6 °C 1016.5 hPa 63 % 3.2 km/h 0.0 mm
25.06.19, 10:00 26.6 °C 1016.4 hPa 64 % 1.8 km/h 0.0 mm
25.06.19, 09:55 26.6 °C 1016.5 hPa 64 % 0.0 km/h 0.0 mm
25.06.19, 09:50 26.4 °C 1016.4 hPa 64 % 6.8 km/h 0.0 mm
25.06.19, 09:45 26.3 °C 1016.4 hPa 64 % 5.0 km/h 0.0 mm
25.06.19, 09:40 26.3 °C 1016.4 hPa 64 % 3.2 km/h 0.0 mm
25.06.19, 09:35 26.2 °C 1016.4 hPa 64 % 1.8 km/h 0.0 mm
25.06.19, 09:30 26.0 °C 1016.4 hPa 64 % 1.8 km/h 0.0 mm
25.06.19, 09:25 25.7 °C 1016.4 hPa 66 % 3.2 km/h 0.0 mm
25.06.19, 09:20 25.3 °C 1016.3 hPa 66 % 6.8 km/h 0.0 mm
25.06.19, 09:15 25.2 °C 1016.4 hPa 66 % 1.8 km/h 0.0 mm
25.06.19, 09:10 25.1 °C 1016.4 hPa 66 % 0.0 km/h 0.0 mm